Franklin, NC

1:56 PM EDT on May 26, 2017 (GMT -0400)
Franklin

Weather History for K1A5 - January, 2014

Change the Weather History Date:

Friday, January 3, 2014

  Actual Average (KTOC) Record (KTOC)
Temperature  
Mean Temperature 24 °F -  
Max Temperature 33 °F 52 °F 62 °F (2017)
Min Temperature 14 °F 34 °F 21 °F (2014)
Degree Days  
Heating Degree Days 42    
Moisture  
Dew Point 8 °F    
Average Humidity 59    
Maximum Humidity 88    
Minimum Humidity 27    
Precipitation  
Precipitation 0.00 in - - ()
Sea Level Pressure  
Sea Level Pressure 30.23 in    
Wind  
Wind Speed 6 mph (NW)    
Max Wind Speed 16 mph    
Max Gust Speed 33 mph    
Visibility 9 miles    
Events Snow    
Averages and records for this station are not official NWS values.
T = Trace of Precipitation, MM = Missing Value Source: NWS Daily Summary

Daily Weather History Graph

Daily Weather History Graph

Search for Another Location

Airport or City:

Trip Planner

Search our weather history database for the weather conditions in past years. The results will help you decide how hot, cold, wet, or windy it might be!

Date:

Astronomy

Jan. 03, 2014 Rise Set
Actual Time 7:42 AM EST 5:34 PM EST
Civil Twilight 7:14 AM EST 6:02 PM EST
Nautical Twilight 6:42 AM EST 6:33 PM EST
Astronomical Twilight 6:12 AM EST 7:04 PM EST
Moon 9:14 AM EST (1/3) 8:34 PM EST (1/3)
Length of Visible Light 10h 47m
Length of Day
9h 51m
Waxing Crescent, 8% of the Moon is Illuminated
Jan 3
Waxing Crescent
Jan 7
First Quarter
Jan 15
Full
Jan 24
Last Quarter
Jan 30
New

Hourly Weather History & Observations

Time (EST) Temp. Windchill Dew Point Humidity Pressure Visibility Wind Dir Wind Speed Gust Speed Precip Events Conditions
12:15 AM 19.0 °F 6.8 °F 9.1 °F 65% 30.00 in 7.0 mi NNW 11.5 mph 18.4 mph N/A Snow Light Snow
12:35 AM 18.9 °F 4.3 °F 9.1 °F 66% 30.02 in 7.0 mi WNW 16.1 mph 33.4 mph N/A Snow Light Snow
12:55 AM 18.5 °F 4.3 °F 8.6 °F 65% 30.02 in 5.0 mi WNW 15.0 mph 27.6 mph N/A Snow Light Snow
1:15 AM 18.3 °F 4.6 °F 9.7 °F 69% 30.02 in 3.0 mi WNW 13.8 mph 21.9 mph N/A Snow Light Snow
1:35 AM 18.0 °F 4.8 °F 10.4 °F 72% 30.04 in 2.5 mi WNW 12.7 mph 23.0 mph N/A Snow Light Snow
1:55 AM 17.6 °F 5.0 °F 11.1 °F 76% 30.05 in 1.5 mi NW 11.5 mph 25.3 mph N/A Snow Light Snow
2:15 AM 17.2 °F 6.0 °F 10.2 °F 74% 30.06 in 2.5 mi WNW 9.2 mph 18.4 mph N/A Snow Light Snow
2:35 AM 17.4 °F 7.1 °F 9.3 °F 71% 30.08 in 4.0 mi NW 8.1 mph - N/A Snow Light Snow
2:55 AM 17.4 °F 8.0 °F 8.2 °F 67% 30.08 in 7.0 mi WNW 6.9 mph - N/A Snow Light Snow
3:15 AM 17.2 °F 10.2 °F 7.9 °F 67% 30.09 in 7.0 mi NW 4.6 mph - N/A Snow Light Snow
3:35 AM 16.7 °F 11.2 °F 7.5 °F 67% 30.10 in 10.0 mi North 3.5 mph - N/A   Overcast
3:55 AM 16.3 °F 4.9 °F 7.5 °F 68% 30.11 in 10.0 mi West 9.2 mph - N/A   Overcast
4:15 AM 15.8 °F 3.4 °F 7.7 °F 70% 30.13 in 5.0 mi WNW 10.4 mph 20.7 mph N/A Snow Light Snow
4:35 AM 15.3 °F 2.8 °F 7.5 °F 71% 30.14 in 5.0 mi WNW 10.4 mph 19.6 mph N/A Snow Light Snow
4:55 AM 14.9 °F 7.5 °F 7.0 °F 71% 30.13 in 7.0 mi NE 4.6 mph - N/A   Overcast
5:15 AM 14.7 °F - 7.3 °F 73% 30.15 in 7.0 mi Calm Calm - N/A Snow Light Snow
5:35 AM 14.7 °F 4.8 °F 7.2 °F 72% 30.14 in 7.0 mi NW 6.9 mph - N/A Snow Light Snow
5:55 AM 14.9 °F 3.1 °F 6.4 °F 69% 30.15 in 10.0 mi NW 9.2 mph - N/A   Mostly Cloudy
6:15 AM 14.9 °F 6.1 °F 5.0 °F 65% 30.16 in 10.0 mi WNW 5.8 mph - N/A   Clear
6:35 AM 15.1 °F - 4.1 °F 62% 30.16 in 10.0 mi Calm Calm - N/A   Clear
6:55 AM 14.9 °F 4.0 °F 3.9 °F 62% 30.17 in 10.0 mi WNW 8.1 mph - N/A   Clear
7:15 AM 15.1 °F 6.4 °F 3.2 °F 59% 30.17 in 10.0 mi NW 5.8 mph - N/A   Clear
7:35 AM 15.3 °F 2.0 °F 2.5 °F 57% 30.18 in 10.0 mi WNW 11.5 mph - N/A   Clear
7:55 AM 15.4 °F 6.8 °F 2.3 °F 56% 30.18 in 10.0 mi WNW 5.8 mph 16.1 mph N/A   Clear
8:15 AM 15.8 °F 4.2 °F 2.3 °F 55% 30.18 in 10.0 mi WNW 9.2 mph - N/A   Clear
8:35 AM 17.1 °F 5.8 °F 2.5 °F 53% 30.20 in 10.0 mi NW 9.2 mph 16.1 mph N/A   Clear
8:55 AM 18.1 °F 10.0 °F 1.9 °F 49% 30.21 in 10.0 mi NW 5.8 mph - N/A   Clear
9:15 AM 19.2 °F 10.2 °F 2.1 °F 47% 30.22 in 10.0 mi NW 6.9 mph - N/A   Clear
9:35 AM 20.5 °F 11.7 °F 1.9 °F 45% 30.23 in 10.0 mi WNW 6.9 mph - N/A   Clear
9:55 AM 21.7 °F 15.5 °F 2.7 °F 44% 30.25 in 10.0 mi North 4.6 mph - N/A   Clear
10:15 AM 22.6 °F 15.3 °F 2.5 °F 42% 30.26 in 10.0 mi NW 5.8 mph - N/A   Clear
10:35 AM 23.5 °F - 2.8 °F 41% 30.28 in 10.0 mi Calm Calm - N/A   Clear
10:55 AM 25.2 °F - 3.0 °F 39% 30.29 in 10.0 mi Calm Calm - N/A   Clear
11:15 AM 25.5 °F - 1.2 °F 35% 30.29 in 10.0 mi Calm Calm - N/A   Clear
11:35 AM 26.6 °F 21.2 °F 3.4 °F 37% 30.29 in 10.0 mi ENE 4.6 mph - N/A   Clear
11:55 AM 26.8 °F - 2.1 °F 35% 30.29 in 10.0 mi Calm Calm - N/A   Clear
12:15 PM 28.2 °F - 4.5 °F 36% 30.29 in 10.0 mi Calm Calm - N/A   Clear
12:35 PM 28.8 °F 23.7 °F 5.9 °F 38% 30.29 in 10.0 mi West 4.6 mph - N/A   Clear
12:55 PM 29.3 °F 24.3 °F 4.6 °F 35% 30.29 in 10.0 mi WNW 4.6 mph - N/A   Clear
1:15 PM 30.0 °F - 4.3 °F 34% 30.29 in 10.0 mi Calm Calm - N/A   Clear
1:35 PM 30.7 °F - 4.5 °F 33% 30.28 in 10.0 mi Calm Calm - N/A   Clear
1:55 PM 31.6 °F - 4.8 °F 32% 30.28 in 10.0 mi Calm Calm - N/A   Clear
2:15 PM 32.0 °F - 4.5 °F 31% 30.27 in 10.0 mi Calm Calm - N/A   Clear
2:35 PM 32.5 °F - 5.4 °F 32% 30.27 in 10.0 mi Calm Calm - N/A   Clear
2:55 PM 32.5 °F - 2.8 °F 28% 30.27 in 10.0 mi Calm Calm - N/A   Clear
3:15 PM 33.1 °F 28.7 °F 4.6 °F 30% 30.27 in 10.0 mi WSW 4.6 mph - N/A   Clear
3:35 PM 32.9 °F - 2.5 °F 28% 30.27 in 10.0 mi Calm Calm - N/A   Clear
3:55 PM 33.3 °F - 2.7 °F 27% 30.28 in 10.0 mi Calm Calm - N/A   Clear
4:15 PM 33.4 °F - 2.5 °F 27% 30.27 in 10.0 mi Calm Calm - N/A   Clear
4:35 PM 33.3 °F - 2.8 °F 28% 30.27 in 10.0 mi Calm Calm - N/A   Clear
4:55 PM 32.7 °F - 7.2 °F 34% 30.27 in 10.0 mi Calm Calm - N/A   Clear
5:15 PM 29.7 °F - 14.7 °F 54% 30.28 in 10.0 mi Calm Calm - N/A   Clear
5:35 PM 28.4 °F - 12.7 °F 52% 30.28 in 10.0 mi Calm Calm - N/A   Clear
5:55 PM 27.1 °F - 16.3 °F 64% 30.29 in 10.0 mi Calm Calm - N/A   Clear
6:15 PM 25.7 °F - 16.7 °F 69% 30.29 in 10.0 mi Calm Calm - N/A   Clear
6:35 PM 24.6 °F - 16.0 °F 70% 30.30 in 10.0 mi Calm Calm - N/A   Clear
6:55 PM 24.1 °F - 17.6 °F 76% 30.30 in 10.0 mi Calm Calm - N/A   Clear
7:15 PM 22.8 °F - 15.8 °F 74% 30.31 in 10.0 mi Calm Calm - N/A   Clear
7:35 PM 21.9 °F - 15.8 °F 77% 30.32 in 10.0 mi Calm Calm - N/A   Clear
7:55 PM 21.9 °F - 16.5 °F 80% 30.32 in 10.0 mi Calm Calm - N/A   Clear
8:15 PM 20.8 °F - 15.6 °F 80% 30.32 in 10.0 mi Calm Calm - N/A   Clear
8:35 PM 19.8 °F - 15.8 °F 85% 30.33 in 10.0 mi Calm Calm - N/A   Clear
8:55 PM 20.5 °F - 16.9 °F 86% 30.34 in 10.0 mi Calm Calm - N/A   Clear
9:15 PM 18.3 °F - 14.2 °F 84% 30.34 in 10.0 mi Calm Calm - N/A   Clear
9:35 PM 19.2 °F - 15.6 °F 86% 30.34 in 10.0 mi Calm Calm - N/A   Clear
9:55 PM 18.9 °F - 14.7 °F 84% 30.34 in 10.0 mi Calm Calm - N/A   Clear
10:15 PM 18.1 °F - 13.8 °F 83% 30.35 in 10.0 mi Calm Calm - N/A   Clear
10:35 PM 17.8 °F - 14.2 °F 86% 30.36 in 10.0 mi Calm Calm - N/A   Clear
10:55 PM 17.6 °F - 14.4 °F 87% 30.35 in 10.0 mi Calm Calm - N/A   Clear
11:15 PM 17.2 °F - 14.0 °F 87% 30.35 in 10.0 mi Calm Calm - N/A   Clear
11:35 PM 16.9 °F - 13.8 °F 88% 30.35 in 10.0 mi Calm Calm - N/A   Clear
11:55 PM 17.2 °F - 14.2 °F 88% 30.35 in 10.0 mi Calm Calm - N/A   Clear